Weather History for Monument Pass, CO

Change the Weather History Date:

Thursday, February 21, 2013

  Actual Average (KAPA) Record (KAPA)
Temperature  
Mean Temperature 12 °F -  
Max Temperature 19 °F 43 °F 64 °F (2000)
Min Temperature 5 °F 21 °F 9 °F (2009)
Degree Days  
Heating Degree Days 53    
Moisture  
Dew Point 11 °F    
Average Humidity 88    
Maximum Humidity 100    
Minimum Humidity 74    
Precipitation  
Precipitation 0.00 in - - ()
Sea Level Pressure  
Sea Level Pressure 29.68 in    
Wind  
Wind Speed 11 mph (NW)    
Max Wind Speed 21 mph    
Max Gust Speed 25 mph    
Visibility 5 miles    
Events Fog , Snow    
Averages and records for this station are not official NWS values.
T = Trace of Precipitation, MM = Missing Value Source: NWS Daily Summary

Daily Weather History Graph

Daily Weather History Graph

Search for Another Location

Airport:

Trip Planner

Search our weather history database for the weather conditions in past years. The results will help you decide how hot, cold, wet, or windy it might be!

Date:

Astronomy

Feb. 21, 2013 Rise Set
Actual Time 6:42 AM MST 5:42 PM MST
Civil Twilight 6:14 AM MST 6:09 PM MST
Nautical Twilight 5:43 AM MST 6:41 PM MST
Astronomical Twilight 5:12 AM MST 7:12 PM MST
Moon 2:00 PM MST 3:47 AM MST
Length of Visible Light 11h 54m
Length of Day
11h 00m
Waxing Gibbous, 84% of the Moon is Illuminated
Feb 21
Waxing Gibbous
Feb 25
Full
Mar 4
Last Quarter
Mar 11
New
Mar 19
First Quarter

Hourly Weather History & Observations

Time (MST) Temp. Windchill Dew Point Humidity Pressure Visibility Wind Dir Wind Speed Gust Speed Precip Events Conditions
12:07 AM 15.8 °F 3.4 °F 14.0 °F 93% 29.58 in 1.5 mi NNW 10.4 mph - N/A Snow Light Snow
12:30 AM 15.8 °F 5.1 °F 14.0 °F 93% 29.58 in 2.5 mi NNW 8.1 mph - N/A Snow Light Snow
12:47 AM 14.0 °F 2.0 °F 14.0 °F 100% 29.58 in 4.0 mi NNW 9.2 mph - 0.01 in Snow Light Snow
1:07 AM 14.0 °F 0.5 °F 14.0 °F 100% 29.58 in 1.8 mi NNW 11.5 mph - N/A Snow Light Snow
1:27 AM 14.0 °F 0.5 °F 12.2 °F 93% 29.57 in 3.0 mi NW 11.5 mph - N/A Snow Light Snow
1:50 AM 14.0 °F 2.0 °F 12.2 °F 93% 29.58 in 2.0 mi NNW 9.2 mph - N/A Snow Light Snow
2:10 AM 14.0 °F 1.2 °F 12.2 °F 93% 29.57 in 1.5 mi NNW 10.4 mph - N/A Snow Light Snow
2:20 AM 14.0 °F -0.2 °F 12.2 °F 93% 29.57 in 1.2 mi NNW 12.7 mph - N/A Snow Light Snow
2:50 AM 12.2 °F -1.8 °F 10.4 °F 92% 29.57 in 2.5 mi NW 11.5 mph - N/A Snow Light Snow
3:00 AM 12.2 °F -1.8 °F 10.4 °F 92% 29.56 in 2.0 mi NW 11.5 mph - N/A Snow Light Snow
3:29 AM 12.2 °F -0.2 °F 10.4 °F 92% 29.58 in 1.8 mi NNW 9.2 mph - N/A Snow Light Snow
3:49 AM 12.2 °F -0.2 °F 10.4 °F 92% 29.58 in 2.5 mi NNW 9.2 mph - N/A Snow Light Snow
4:09 AM 12.2 °F -0.2 °F 10.4 °F 92% 29.58 in 2.5 mi NNW 9.2 mph - N/A Snow Light Snow
5:09 AM 12.2 °F -1.8 °F 10.4 °F 92% 29.60 in 4.0 mi NW 11.5 mph - N/A Snow Light Snow
5:30 AM 12.2 °F 1.7 °F 10.4 °F 92% 29.61 in 5.0 mi NW 6.9 mph - N/A Snow Light Snow
5:50 AM 10.4 °F -1.5 °F 8.6 °F 92% 29.62 in 4.0 mi NW 8.1 mph - N/A Snow Light Snow
6:09 AM 10.4 °F -1.5 °F 8.6 °F 92% 29.62 in 7.0 mi NW 8.1 mph - N/A Snow Light Snow
6:27 AM 10.4 °F -0.4 °F 8.6 °F 92% 29.62 in 7.0 mi NW 6.9 mph - N/A Snow Light Snow
6:47 AM 10.4 °F -4.1 °F 8.6 °F 92% 29.63 in 1.5 mi NW 11.5 mph - N/A Snow Light Snow
7:09 AM 10.4 °F -2.4 °F 8.6 °F 92% 29.63 in 1.0 mi NW 9.2 mph - N/A Snow Light Snow
7:31 AM 12.2 °F -1.8 °F 10.4 °F 92% 29.64 in 1.0 mi NW 11.5 mph - N/A Snow Light Snow
7:49 AM 12.2 °F -1.0 °F 10.4 °F 92% 29.65 in 1.0 mi NW 10.4 mph - N/A Snow Light Snow
8:05 AM 12.2 °F -1.0 °F 10.4 °F 92% 29.66 in 1.0 mi NW 10.4 mph - N/A Snow Light Snow
8:28 AM 12.2 °F -3.7 °F 10.4 °F 92% 29.66 in 1.2 mi NW 15.0 mph - N/A Snow Light Snow
8:49 AM 12.2 °F -2.5 °F 10.4 °F 92% 29.67 in 1.2 mi NW 12.7 mph - N/A Snow Light Snow
9:10 AM 14.0 °F -0.8 °F 10.4 °F 86% 29.67 in 1.0 mi NW 13.8 mph - N/A Snow Light Snow
9:21 AM 14.0 °F -0.8 °F 10.4 °F 86% 29.67 in 0.8 mi NW 13.8 mph - N/A Snow Light Snow
9:44 AM 14.0 °F -0.8 °F 10.4 °F 86% 29.68 in 0.8 mi NW 13.8 mph - N/A Snow Light Snow
10:11 AM 15.8 °F 2.7 °F 10.4 °F 79% 29.68 in 2.5 mi NW 11.5 mph - N/A Snow Light Snow
10:29 AM 17.6 °F 4.3 °F 12.2 °F 79% 29.68 in 2.0 mi NW 12.7 mph - N/A Snow Light Snow
11:06 AM 17.6 °F 1.7 °F 12.2 °F 79% - 5.0 mi NNW 18.4 mph - N/A Snow Light Snow
11:29 AM 17.6 °F 1.7 °F 12.2 °F 79% 29.68 in 3.0 mi NW 18.4 mph - N/A Snow Light Snow
11:51 AM 17.6 °F 1.3 °F 12.2 °F 79% 29.68 in 3.0 mi NW 19.6 mph - N/A   Haze
12:03 PM 19.4 °F 5.0 °F 12.2 °F 74% 29.68 in 5.0 mi NNW 16.1 mph - N/A   Haze
12:31 PM 19.4 °F 5.0 °F 14.0 °F 80% 29.67 in 7.0 mi NW 16.1 mph - N/A   Mostly Cloudy
12:45 PM 19.4 °F 5.5 °F 14.0 °F 80% 29.66 in 10.0 mi NNW 15.0 mph - N/A   Mostly Cloudy
12:56 PM 19.4 °F 5.5 °F 14.0 °F 80% 29.66 in 10.0 mi NNW 15.0 mph - N/A   Mostly Cloudy
1:28 PM 17.6 °F 1.7 °F 12.2 °F 79% 29.65 in 7.0 mi NNW 18.4 mph 24.2 mph N/A   Overcast
1:51 PM 17.6 °F 0.9 °F 12.2 °F 79% 29.65 in 10.0 mi NNW 20.7 mph 25.3 mph N/A   Overcast
2:10 PM 19.4 °F 4.1 °F 14.0 °F 80% 29.66 in 10.0 mi NW 18.4 mph 24.2 mph N/A   Overcast
2:30 PM 19.4 °F 3.2 °F 12.2 °F 74% 29.66 in 10.0 mi NNW 20.7 mph - N/A   Mostly Cloudy
2:48 PM 19.4 °F 3.2 °F 14.0 °F 80% 29.66 in 10.0 mi NW 20.7 mph 25.3 mph N/A   Mostly Cloudy
3:08 PM 19.4 °F 3.6 °F 14.0 °F 80% 29.67 in 10.0 mi NNW 19.6 mph - N/A   Overcast
3:28 PM 17.6 °F 2.2 °F 14.0 °F 86% 29.67 in 10.0 mi NNW 17.3 mph - N/A   Overcast
3:51 PM 17.6 °F 3.2 °F 14.0 °F 86% 29.69 in 7.0 mi NNW 15.0 mph - N/A Snow Light Snow
4:06 PM 17.6 °F 3.7 °F 14.0 °F 86% 29.69 in 7.0 mi North 13.8 mph - N/A Snow Light Snow
4:31 PM 17.6 °F 3.7 °F 14.0 °F 86% 29.70 in 5.0 mi NNW 13.8 mph - N/A Snow Light Snow
4:51 PM 17.6 °F 5.0 °F 14.0 °F 86% 29.70 in 10.0 mi NNW 11.5 mph - N/A Snow Light Snow
5:14 PM 15.8 °F 1.4 °F 12.2 °F 86% 29.71 in 10.0 mi NNW 13.8 mph - N/A Snow Light Snow
5:34 PM 15.8 °F 2.7 °F 12.2 °F 86% 29.71 in 10.0 mi NNW 11.5 mph 18.4 mph N/A Snow Light Snow
5:51 PM 15.8 °F 4.2 °F 12.2 °F 86% 29.73 in 5.0 mi NNW 9.2 mph - N/A Snow Light Snow
6:14 PM 15.8 °F 3.4 °F 12.2 °F 86% 29.74 in 5.0 mi NNW 10.4 mph - N/A Snow Light Snow
6:32 PM 15.8 °F 4.2 °F 12.2 °F 86% 29.75 in 5.0 mi NNW 9.2 mph - N/A Snow Light Snow
6:54 PM 14.0 °F 2.9 °F 12.2 °F 93% 29.75 in 5.0 mi NNW 8.1 mph - N/A Snow Light Snow
7:13 PM 14.0 °F 3.9 °F 12.2 °F 93% 29.76 in 5.0 mi NNW 6.9 mph - N/A Snow Light Snow
7:32 PM 14.0 °F 3.9 °F 12.2 °F 93% 29.77 in 7.0 mi NW 6.9 mph - N/A Snow Light Snow
7:54 PM 14.0 °F 3.9 °F 12.2 °F 93% 29.78 in 10.0 mi WNW 6.9 mph - N/A Snow Light Snow
8:14 PM 14.0 °F 3.9 °F 12.2 °F 93% 29.78 in 10.0 mi NW 6.9 mph - N/A   Overcast
8:34 PM 12.2 °F 2.9 °F 10.4 °F 92% 29.78 in 10.0 mi NW 5.8 mph - N/A   Overcast
8:52 PM 8.6 °F -3.7 °F 6.8 °F 92% 29.78 in 10.0 mi WNW 8.1 mph - N/A Snow Light Snow
9:14 PM 6.8 °F -3.5 °F 5.0 °F 92% 29.79 in 7.0 mi West 5.8 mph - N/A   Clear
9:34 PM 8.6 °F -1.3 °F 6.8 °F 92% 29.78 in 5.0 mi WNW 5.8 mph - N/A   Clear
9:54 PM 5.0 °F -5.6 °F 3.2 °F 92% 29.78 in 0.8 mi West 5.8 mph - N/A   Mist
10:14 PM 5.0 °F -6.9 °F 3.2 °F 92% 29.78 in 1.0 mi West 6.9 mph - N/A   Mist
10:34 PM 10.4 °F 2.2 °F 10.4 °F 100% 29.78 in 3.0 mi SW 4.6 mph - N/A   Mostly Cloudy
10:54 PM 8.6 °F 2.0 °F 6.8 °F 92% 29.78 in 2.0 mi SW 3.5 mph - N/A   Overcast
11:14 PM 10.4 °F 2.2 °F 8.6 °F 92% 29.78 in 0.2 mi South 4.6 mph - N/A Fog Light Freezing Fog
11:33 PM 8.6 °F 2.0 °F 5.0 °F 85% 29.77 in 0.2 mi SSW 3.5 mph - N/A Fog Light Freezing Fog
11:52 PM 5.0 °F -2.1 °F 3.2 °F 92% 29.78 in 1.0 mi South 3.5 mph - N/A   Mostly Cloudy